Latest Weather Observations for Tocal

IDN60801

Issued at 9:02 pm EDT Sunday 26 February 2017 (issued every 30 minutes, with the page automatically refreshed every 10 minutes)

About weather observations | Map of weather stations | Latest weather observations for NSW | Other Formats
Station Details ID: 061250 Name: TOCAL AWS Lat: -32.63 Lon: 151.59 Height: 30.0 m
Data from the previous 72 hours. | See also: Recent months at Tocal
Date/Time
EDT
Temp
°C
App
Temp
°C
Dew
Point
°C
Rel
Hum
%
Delta-T
°C
Wind Press
QNH
hPa
Press
MSL
hPa
Rain since
9am
mm
Dir  Spd
km/h
Gust
km/h
Spd
kts
Gust
kts
26/09:00pm 20.8 21.1 17.0 79 2.3 SW 11 19 6 10 - - 0.6
26/08:30pm 21.3 21.9 16.9 76 2.7 SSW 9 13 5 7 - - 0.6
26/08:00pm 21.6 21.7 16.5 73 3.1 S 11 20 6 11 - - 0.6
26/07:30pm 22.1 21.9 15.6 66 3.9 S 11 20 6 11 - - 0.6
26/07:00pm 22.8 21.3 14.1 58 5.1 S 15 30 8 16 - - 0.6
26/06:30pm 23.4 21.2 13.4 53 5.8 S 17 32 9 17 - - 0.6
26/06:00pm 23.6 20.9 12.8 50 6.2 S 19 33 10 18 - - 0.6
26/05:30pm 23.9 21.6 13.0 50 6.3 S 17 32 9 17 - - 0.6
26/05:00pm 25.1 22.4 13.5 48 6.8 S 20 35 11 19 - - 0.6
26/04:30pm 24.3 21.9 13.9 52 6.1 S 19 33 10 18 - - 0.6
26/04:00pm 24.9 22.8 12.4 45 7.2 SSE 15 30 8 16 - - 0.6
26/03:30pm 24.6 22.2 13.7 50 6.4 SSE 19 32 10 17 - - 0.6
26/03:00pm 23.8 22.7 16.3 63 4.6 ESE 17 24 9 13 - - 0.6
26/02:30pm 23.1 22.9 17.6 71 3.4 SE 15 24 8 13 - - 0.6
26/02:00pm 22.8 22.7 16.9 69 3.6 SE 13 19 7 10 - - 0.6
26/01:30pm 22.7 22.0 17.4 72 3.3 SE 17 26 9 14 - - 0.6
26/01:00pm 21.5 21.1 18.8 84 1.7 SSE 19 33 10 18 - - 0.4
26/12:30pm 24.2 22.2 16.4 61 4.8 SSE 22 33 12 18 - - 0.0
26/12:00pm 23.4 22.1 15.8 62 4.6 S 17 30 9 16 - - 0.0
26/11:30am 23.5 23.0 15.9 62 4.6 S 13 24 7 13 - - 0.0
26/11:00am 22.8 22.0 16.0 65 4.1 SSE 15 30 8 16 - - 0.0
26/10:30am 22.1 22.9 17.2 74 3.0 S 9 17 5 9 - - 0.0
26/10:00am 21.5 23.2 18.5 83 1.9 SSW 7 13 4 7 - - 0.0
26/09:30am 20.4 22.7 19.8 96 0.4 W 7 9 4 5 - - 0.0
26/09:00am 19.9 22.1 19.3 96 0.4 N 6 7 3 4 - - 7.2
26/08:30am 19.7 21.8 18.9 95 0.5 SW 6 11 3 6 - - 7.0
26/08:00am 19.4 21.8 18.9 97 0.3 WSW 4 7 2 4 - - 5.6
26/07:30am 19.2 21.0 18.7 97 0.3 S 7 11 4 6 - - 5.6
26/07:00am 19.2 21.9 18.6 96 0.4 WSW 2 9 1 5 - - 4.0
26/06:30am 19.2 21.9 18.7 97 0.3 WNW 2 6 1 3 - - 3.4
26/06:00am 19.0 20.8 18.4 96 0.4 W 6 15 3 8 - - 3.4
26/05:30am 18.6 20.4 18.3 98 0.2 WSW 6 7 3 4 - - 2.6
26/05:00am 18.7 21.3 18.4 98 0.2 N 2 6 1 3 - - 2.6
26/04:30am 18.8 21.4 18.5 98 0.2 WNW 2 7 1 4 - - 2.6
26/04:00am 18.8 21.8 18.5 98 0.2 CALM 0 0 0 0 - - 2.6
26/03:30am 19.1 21.0 18.6 97 0.3 W 6 7 3 4 - - 2.6
26/03:00am 19.4 22.6 18.8 96 0.4 CALM 0 0 0 0 - - 2.6
26/02:30am 19.5 22.8 19.0 97 0.3 CALM 0 0 0 0 - - 2.6
26/02:00am 19.6 22.8 18.8 95 0.5 CALM 0 0 0 0 - - 2.6
26/01:30am 19.8 23.2 19.3 97 0.3 CALM 0 0 0 0 - - 2.6
26/01:00am 19.9 23.3 19.3 96 0.4 CALM 0 0 0 0 - - 2.6
26/12:30am 20.0 22.2 19.5 97 0.3 W 7 9 4 5 - - 2.6
26/12:00am 20.1 23.2 19.5 96 0.4 SW 2 7 1 4 - - 1.2
 
Date/Time
EDT
Temp
°C
App
Temp
°C
Dew
Point
°C
Rel
Hum
%
Delta-T
°C
Wind Press
QNH
hPa
Press
MSL
hPa
Rain since
9am
mm
Dir  Spd
km/h
Gust
km/h
Spd
kts
Gust
kts
25/11:30pm 20.0 23.5 19.5 97 0.3 CALM 0 0 0 0 - - 1.2
25/11:00pm 20.0 21.7 19.4 96 0.4 SSW 9 13 5 7 - - 1.2
25/10:30pm 20.1 22.3 19.6 97 0.3 S 7 13 4 7 - - 1.2
25/10:00pm 20.2 22.4 19.7 97 0.3 S 7 11 4 6 - - 1.2
25/09:30pm 20.5 23.0 19.9 96 0.4 SSW 6 11 3 6 - - 1.2
25/09:00pm 20.5 22.8 19.9 96 0.4 E 7 13 4 7 - - 1.0
25/08:30pm 20.5 22.4 19.7 95 0.5 SSW 9 13 5 7 - - 0.0
25/08:00pm 20.7 22.6 19.8 95 0.6 SSW 9 13 5 7 - - 0.0
25/07:30pm 21.0 23.3 19.9 93 0.7 SSW 7 11 4 6 - - 0.0
25/07:00pm 21.0 21.9 19.3 90 1.1 SSW 13 19 7 10 - - 0.0
25/06:30pm 22.2 22.0 18.5 79 2.3 SSW 17 26 9 14 - - 0.0
25/06:00pm 23.0 23.1 18.4 75 2.9 SSW 15 26 8 14 - - 0.0
25/05:30pm 23.1 23.4 18.7 76 2.8 SSW 15 22 8 12 - - 0.0
25/05:00pm 23.5 22.6 17.7 70 3.6 S 19 28 10 15 - - 0.0
25/04:30pm 24.0 23.8 18.6 72 3.4 S 17 28 9 15 - - 0.0
25/04:00pm 24.6 24.4 18.4 68 3.9 S 17 32 9 17 - - 0.0
25/03:30pm 24.6 23.9 18.3 68 4.0 S 19 30 10 16 - - 0.0
25/03:00pm 25.8 25.0 17.9 61 5.0 S 19 30 10 16 - - 0.0
25/02:30pm 25.5 24.7 18.4 65 4.5 SSW 20 28 11 15 - - 0.0
25/02:00pm 24.2 24.2 18.9 72 3.4 SSW 17 28 9 15 - - 0.0
25/01:30pm 25.9 25.2 18.7 64 4.6 SSW 20 30 11 16 - - 0.0
25/01:00pm 26.8 26.7 17.9 58 5.6 S 15 24 8 13 - - 0.0
25/12:30pm 26.2 26.6 18.1 61 5.1 SSW 13 19 7 10 - - 0.0
25/12:00pm 26.3 27.0 17.9 60 5.3 SW 11 15 6 8 - - 0.0
25/11:30am 25.7 26.7 17.7 61 5.0 SE 9 13 5 7 - - 0.0
25/11:00am 25.4 26.5 18.1 64 4.6 S 9 11 5 6 - - 0.0
25/10:30am 25.1 28.1 18.5 67 4.2 CALM 0 7 0 4 - - 0.0
25/10:00am 24.1 26.2 18.0 68 3.8 ESE 4 9 2 5 - - 0.0
25/09:30am 23.8 25.6 18.4 72 3.4 N 6 9 3 5 - - 0.0
25/09:00am 22.9 26.0 19.5 81 2.2 N 2 7 1 4 - - 0.0
25/08:30am 22.3 24.5 19.1 82 2.0 WNW 6 7 3 4 - - 0.0
25/08:00am 21.2 23.0 18.3 83 1.8 NNW 6 9 3 5 - - 0.0
25/07:30am 20.0 22.9 18.1 89 1.2 CALM 0 0 0 0 - - 0.0
25/07:00am 19.5 22.2 17.7 89 1.1 CALM 0 0 0 0 - - 0.0
25/06:30am 19.1 21.7 17.5 90 1.0 CALM 0 0 0 0 - - 0.0
25/06:00am 19.0 20.8 17.4 90 1.0 WNW 4 7 2 4 - - 0.0
25/05:30am 19.5 22.2 17.7 89 1.1 CALM 0 0 0 0 - - 0.0
25/05:00am 18.9 21.5 17.6 92 0.8 CALM 0 0 0 0 - - 0.0
25/04:30am 18.7 21.2 17.2 91 0.9 CALM 0 0 0 0 - - 0.0
25/04:00am 19.6 21.5 17.6 88 1.2 W 4 6 2 3 - - 0.0
25/03:30am 18.6 20.3 17.1 91 0.9 NW 4 6 2 3 - - 0.0
25/03:00am 19.2 21.8 17.6 90 1.0 CALM 0 0 0 0 - - 0.0
25/02:30am 20.2 21.5 17.6 85 1.6 SW 7 9 4 5 - - 0.0
25/02:00am 19.0 20.4 17.4 90 1.0 WNW 6 7 3 4 - - 0.0
25/01:30am 18.8 20.2 17.3 91 0.9 NW 6 7 3 4 - - 0.0
25/01:00am 19.9 22.5 17.5 86 1.5 CALM 0 0 0 0 - - 0.0
25/12:30am 20.6 21.9 17.5 82 1.9 S 7 11 4 6 - - 0.0
25/12:00am 20.5 21.3 17.4 82 1.9 S 9 9 5 5 - - 0.0
 
Date/Time
EDT
Temp
°C
App
Temp
°C
Dew
Point
°C
Rel
Hum
%
Delta-T
°C
Wind Press
QNH
hPa
Press
MSL
hPa
Rain since
9am
mm
Dir  Spd
km/h
Gust
km/h
Spd
kts
Gust
kts
24/11:30pm 20.5 22.0 17.6 83 1.8 S 6 7 3 4 - - 0.0
24/11:00pm 20.8 22.1 17.6 82 2.0 S 7 9 4 5 - - 0.0
24/10:30pm 21.3 22.6 17.6 79 2.3 S 7 11 4 6 - - 0.0
24/10:00pm 21.8 22.7 17.6 77 2.6 SSE 9 15 5 8 - - 0.0
24/09:30pm 22.2 23.0 17.3 74 3.0 S 9 11 5 6 - - 0.0
24/09:00pm 22.5 23.7 17.3 72 3.2 S 7 11 4 6 - - 0.0
24/08:30pm 22.9 23.7 17.2 70 3.5 S 9 13 5 7 - - 0.0
24/08:00pm 23.5 24.6 17.0 67 4.0 SSE 7 13 4 7 - - 0.0
24/07:30pm 24.0 23.9 16.9 64 4.4 SE 13 19 7 10 - - 0.0
24/07:00pm 24.8 24.6 16.7 60 5.0 SE 13 19 7 10 - - 0.0
24/06:30pm 25.1 24.6 16.9 60 5.1 SSE 15 24 8 13 - - 0.0
24/06:00pm 25.7 - 16.6 57 5.6 - - - - - - - 0.0
24/05:30pm 26.7 - 16.3 53 6.4 - - - - - - - 0.0
24/05:00pm 27.7 - 15.2 46 7.6 - - - - - - - 0.0
24/04:30pm 29.2 - 16.2 45 8.1 - - - - - - - 0.0
24/04:00pm 29.7 - 16.6 45 8.2 - - - - - - - 0.0
24/03:30pm 30.6 - 17.2 44 8.5 - - - - - - - 0.0
24/03:00pm 30.6 28.9 17.2 44 8.5 SE 22 32 12 17 - - 0.0
24/02:30pm 30.6 29.2 16.6 43 8.8 SE 19 30 10 16 - - 0.0
24/02:00pm 31.1 - 16.4 41 9.2 - - - - - - - 0.0
24/01:30pm 30.9 29.6 16.8 42 8.9 SSW 19 26 10 14 - - 0.0
24/01:00pm 30.6 28.8 15.4 39 9.4 S 19 33 10 18 - - 0.0
24/12:30pm 30.3 29.0 15.8 41 9.0 SE 17 24 9 13 - - 0.0
24/12:00pm 29.4 28.8 15.6 43 8.5 SSE 13 19 7 10 - - 0.0
24/11:30am 28.6 28.3 16.4 47 7.6 SSW 13 17 7 9 - - 0.0
24/11:00am 27.9 28.7 17.2 52 6.7 WSW 9 13 5 7 - - 0.0
24/10:30am 26.1 27.4 17.5 59 5.4 S 7 13 4 7 - - 0.0
24/10:00am 25.6 26.9 17.6 61 5.0 S 7 11 4 6 - - 0.0
24/09:30am 23.7 25.5 17.4 68 3.9 SW 4 11 2 6 - - 0.0
24/09:00am 22.6 24.0 17.9 75 2.9 E 7 9 4 5 - - 0.0
24/08:30am 20.5 22.4 17.6 83 1.8 NE 4 7 2 4 - - 0.0
24/08:00am 18.8 21.2 17.0 89 1.1 CALM 0 0 0 0 - - 0.0
24/07:30am 18.0 19.1 17.0 94 0.6 SW 7 9 4 5 - - 0.0
24/07:00am 16.3 18.1 15.4 94 0.5 CALM 0 0 0 0 - - 0.0
24/06:30am 15.5 16.0 15.0 97 0.3 NNW 6 7 3 4 - - 0.0
24/06:00am 17.0 19.0 16.0 94 0.6 CALM 0 0 0 0 - - 0.0
24/05:30am 16.1 17.8 15.1 94 0.6 CALM 0 0 0 0 - - 0.0
24/05:00am 16.6 17.2 15.2 91 0.8 W 6 7 3 4 - - 0.0
24/04:30am 16.4 17.0 15.2 93 0.7 NW 6 7 3 4 - - 0.0
24/04:00am 17.8 19.8 15.9 89 1.1 CALM 0 0 0 0 - - 0.0
24/03:30am 17.5 18.6 15.5 88 1.2 WNW 4 7 2 4 - - 0.0
24/03:00am 17.9 19.7 15.5 86 1.4 CALM 0 0 0 0 - - 0.0
24/02:30am 18.3 19.4 15.6 84 1.6 WNW 4 7 2 4 - - 0.0
24/02:00am 18.7 19.8 15.7 83 1.8 W 4 7 2 4 - - 0.0
24/01:30am 19.8 20.6 15.9 78 2.3 W 6 7 3 4 - - 0.0
24/01:00am 20.8 20.6 15.8 73 3.0 SW 11 13 6 7 - - 0.0
24/12:30am 22.0 22.2 15.7 67 3.8 SW 9 9 5 5 - - 0.0
24/12:00am 22.6 23.3 15.6 64 4.2 S 6 7 3 4 - - 0.0
 
Date/Time
EDT
Temp
°C
App
Temp
°C
Dew
Point
°C
Rel
Hum
%
Delta-T
°C
Wind Press
QNH
hPa
Press
MSL
hPa
Rain since
9am
mm
Dir  Spd
km/h
Gust
km/h
Spd
kts
Gust
kts
23/11:30pm 23.0 24.1 15.5 62 4.5 SSE 4 7 2 4 - - 0.0
23/11:00pm 24.8 25.2 15.4 56 5.7 E 7 9 4 5 - - 0.0
23/10:30pm 25.3 24.5 15.2 53 6.1 ENE 13 17 7 9 - - 0.0
23/10:00pm 25.9 24.6 14.7 50 6.7 ENE 15 22 8 12 - - 0.0
23/09:30pm 25.7 26.2 15.1 52 6.4 W 6 7 3 4 - - 0.0

Other Formats:

Comma delimited format used in spreadsheet applications
http://www.bom.gov.au/fwo/IDN60801/IDN60801.94775.axf

JavaScript Object Notation format (JSON) in row-major order
http://www.bom.gov.au/fwo/IDN60801/IDN60801.94775.json